SILO ALERT LOG


Silo ID Alert Type Alert Message Silo Type Points Depth (mm) Strength Temperature (°C) Humidity (%) Height (mm) Volume (㎥) Weight (t) Flag Time
DJSAD02 Humidity 습도센서 측정값이 80% 초과 386 1142 4358 3.5 86.7 7637 316.185 199.892 11 2024-01-11 19:39:38.000
DJHNR01 Humidity 습도센서 측정값이 80% 초과 호퍼 471 4284 4724 8.5 99.9 11095 474.575 300.026 13 2024-01-11 19:39:33.000
DJSSD01 Humidity 습도센서 측정값이 80% 초과 790 2565 4645 6.6 83 5514 767.502 485.215 0 2024-01-11 19:39:33.000
DJSSD04 Temperature 온도센서 상태 이상 0 8200 0 -999 -999 -120 -16.702 0 31 2024-01-11 19:39:33.000
DJSSD05 Temperature 온도센서 측정값이 0도 미만 843 2549 4866 -45.4 43.6 5530 769.672 486.587 0 2024-01-11 19:39:32.000
DJDJD04 Humidity 습도센서 측정값이 80% 초과 282 4183 4427 5.4 81.1 3496 423.665 267.841 11 2024-01-11 19:39:32.000
DJSAD12 Humidity 습도센서 측정값이 80% 초과 0 7700 0 6.5 85.1 -120 -17.075 0 31 2024-01-11 19:39:32.000
DJSAD18 Humidity 습도센서 측정값이 80% 초과 117 1406 5837 6 80.8 6173 614.752 388.646 11 2024-01-11 19:39:31.000
DJSSD09 Temperature 온도센서 측정값이 0도 미만 122 2907 2637 -45.4 0 4772 664.269 419.951 11 2024-01-11 19:39:31.000
DJSAD07 Humidity 습도센서 측정값이 80% 초과 269 2413 3261 4.6 84.5 5166 735.215 464.803 11 2024-01-11 19:39:30.000
DJSSD12 Temperature 온도센서 상태 이상 호퍼 0 11350 0 -999 -999 -120 0 0 31 2024-01-11 19:39:24.000
DJHNR03 Temperature 온도센서 상태 이상 호퍼 0 15500 0 -999 -999 -119 0 0 31 2024-01-11 19:39:23.000
DJHNR12 Humidity 습도센서 측정값이 80% 초과 호퍼 0 10500 0 4.6 81.3 -120 0 0 31 2024-01-11 19:39:22.000
DJSAD08 Humidity 습도센서 측정값이 80% 초과 358 2149 4298 12 82.2 5430 772.755 488.536 29 2024-01-11 18:39:45.000
DJSAD03 Humidity 습도센서 측정값이 80% 초과 443 1664 5952 4.3 84.5 7115 294.548 186.213 0 2024-01-11 18:39:40.000
DJSAD01 Humidity 습도센서 측정값이 80% 초과 461 1502 7415 2.9 86.4 7277 301.281 190.47 0 2024-01-11 18:39:40.000
DJSAD02 Humidity 습도센서 측정값이 80% 초과 382 1142 4361 3.5 86.7 7637 316.181 199.89 11 2024-01-11 18:39:39.000
DJHNR01 Humidity 습도센서 측정값이 80% 초과 호퍼 471 4267 4667 8.6 99.9 11112 475.791 300.795 13 2024-01-11 18:39:33.000
DJSAD12 Humidity 습도센서 측정값이 80% 초과 0 7700 0 6.6 85.4 -120 -17.075 0 31 2024-01-11 18:39:33.000
DJDJD04 Humidity 습도센서 측정값이 80% 초과 275 4210 4407 5.5 81.1 3469 420.299 265.713 11 2024-01-11 18:39:33.000

[첫 페이지] [9992] [9993] [9994] [9995] 9996 [9997] [9998] [9999] [10000] [마지막 페이지]